Weather History for Valentine, NE

Change the Weather History Date:

Tuesday, February 26, 2013

  Actual Average Record
Temperature  
Mean Temperature 27 °F 30 °F  
Max Temperature 41 °F 43 °F 68 °F (1932)
Min Temperature 13 °F 17 °F -24 °F (1934)
Degree Days  
Heating Degree Days 38 35  
Month to date heating degree days 946 988  
Since 1 July heating degree days 4881 5166  
Cooling Degree Days 0 0  
Month to date cooling degree days 0 0  
Year to date cooling degree days 0 0  
Moisture  
Dew Point 18 °F    
Average Humidity 66    
Maximum Humidity 91    
Minimum Humidity 40    
Precipitation  
Precipitation T in 0.02 in 0.53 in (1895)
Month to date precipitation 0.98 0.43  
Year to date precipitation 1.23 0.69  
Snow  
Snow T in 0.20 in 6.00 in (1996)
Month to date snowfall 9.4 5.1  
Since 1 July snowfall 27.6 21.6  
Snow Depth 1.00 in    
Sea Level Pressure  
Sea Level Pressure 29.97 in    
Wind  
Wind Speed 4 mph (NNW)    
Max Wind Speed 14 mph    
Max Gust Speed 17 mph    
Visibility 10 miles    
Events      
T = Trace of Precipitation, MM = Missing Value Source: NWS Daily Summary

Daily Weather History Graph

Daily Weather History Graph

Search for Another Location

Airport:

Trip Planner

Search our weather history database for the weather conditions in past years. The results will help you decide how hot, cold, wet, or windy it might be!

Date:

Astronomy

Feb. 26, 2013 Rise Set
Actual Time 7:22 AM CST 6:28 PM CST
Civil Twilight 6:53 AM CST 6:56 PM CST
Nautical Twilight 6:21 AM CST 7:29 PM CST
Astronomical Twilight 5:48 AM CST 8:02 PM CST
Moon 7:50 PM CST (2/26) 7:23 AM CST (2/26)
Length of Visible Light 12h 02m
Length of Day
11h 05m
Full, 99% of the Moon is Illuminated
Feb 26
Full
Mar 4
Last Quarter
Mar 11
New
Mar 19
First Quarter
Mar 27
Full

Hourly Weather History & Observations

Time (CST) Temp. Windchill Dew Point Humidity Pressure Visibility Wind Dir Wind Speed Gust Speed Precip Events Conditions
12:52 AM 19.9 °F 14.9 °F 17.1 °F 89% 29.96 in 10.0 mi SW 3.5 mph - N/A   Clear
1:52 AM 19.0 °F 13.9 °F 17.1 °F 92% 29.98 in 10.0 mi SSE 3.5 mph - N/A   Clear
2:52 AM 17.1 °F - 14.0 °F 88% 29.96 in 10.0 mi Calm Calm - N/A   Clear
3:52 AM 15.1 °F - 10.9 °F 84% 29.94 in 10.0 mi Calm Calm - N/A   Clear
4:52 AM 15.1 °F - 12.0 °F 88% 29.94 in 10.0 mi Calm Calm - N/A   Clear
5:52 AM 14.0 °F - 10.9 °F 88% 29.94 in 10.0 mi Calm Calm - N/A   Clear
6:52 AM 14.0 °F 6.5 °F 10.0 °F 84% 29.94 in 10.0 mi West 4.6 mph - N/A   Clear
7:52 AM 14.0 °F 8.2 °F 10.9 °F 88% 29.93 in 10.0 mi WSW 3.5 mph - N/A   Clear
8:52 AM 19.0 °F - 16.0 °F 88% 29.94 in 10.0 mi Calm Calm - N/A   Clear
9:52 AM 27.0 °F 23.0 °F 21.9 °F 81% 29.94 in 10.0 mi West 3.5 mph - N/A   Clear
10:52 AM 33.1 °F - 25.0 °F 72% 29.95 in 10.0 mi Calm Calm - N/A   Clear
11:52 AM 35.1 °F - 24.1 °F 64% 29.95 in 10.0 mi Calm Calm - N/A   Clear
12:52 PM 37.9 °F 33.5 °F 23.0 °F 55% 29.94 in 10.0 mi ENE 5.8 mph - N/A   Clear
1:52 PM 39.0 °F 34.0 °F 18.0 °F 43% 29.91 in 10.0 mi NNE 6.9 mph - N/A   Clear
2:52 PM 39.9 °F 33.9 °F 17.1 °F 40% 29.92 in 10.0 mi North 9.2 mph - N/A   Clear
3:52 PM 39.9 °F 33.4 °F 21.9 °F 49% 29.94 in 10.0 mi NNE 10.4 mph - N/A   Clear
4:52 PM 36.0 °F 29.6 °F 21.0 °F 55% 29.97 in 10.0 mi NNE 8.1 mph - N/A   Clear
5:52 PM 33.1 °F 26.1 °F 19.9 °F 59% 30.00 in 10.0 mi North 8.1 mph - N/A   Clear
6:52 PM 30.0 °F 23.2 °F 23.0 °F 75% 30.04 in 10.0 mi North 6.9 mph - N/A   Clear
7:52 PM 28.9 °F 22.8 °F 21.9 °F 75% 30.05 in 10.0 mi North 5.8 mph - N/A   Clear
8:52 PM 28.9 °F 25.2 °F 21.9 °F 75% 30.06 in 10.0 mi NNW 3.5 mph - N/A   Clear
9:52 PM 30.0 °F 22.4 °F 19.9 °F 66% 30.05 in 10.0 mi NNW 8.1 mph - N/A   Clear
10:52 PM 28.4 °F 21.2 °F 19.4 °F 69% 29.99 in 10.0 mi NNW 6.9 mph - N/A   Clear
11:52 PM 28.0 °F 20.0 °F 19.9 °F 72% 30.08 in 10.0 mi NNW 8.1 mph - N/A   Clear